This is the latest recevied weather packets stored in our database for station/object N5LSN. If no packets are shown the sender has not sent any weather packets the latest 10 day(s).
| Time | Temp. | Humidity | Pressure | Rain* | Wind** | Luminosity | Snow |
|---|---|---|---|---|---|---|---|
| 1778027711 | 22.22° C | 95% | 1005.9 hPa | 0 mm | - | 19 W/m² | - |
| 1778027407 | 22.78° C | 95% | 1006 hPa | 0 mm | - | 23 W/m² | - |
| 1778027103 | 22.78° C | 95% | 1006.1 hPa | 0 mm | - | 25 W/m² | - |
| 1778026798 | 22.78° C | 95% | 1005.8 hPa | 0 mm | - | 17 W/m² | - |
| 1778026495 | 22.78° C | 94% | 1005.6 hPa | 0 mm | - | 19 W/m² | - |
| 1778026193 | 22.78° C | 94% | 1006.1 hPa | 0 mm | - | 24 W/m² | - |
| 1778025890 | 22.78° C | 94% | 1005.9 hPa | 0 mm | - | 47 W/m² | - |
| 1778025587 | 22.78° C | 94% | 1006.2 hPa | 0 mm | - | 79 W/m² | - |
| 1778025285 | 22.78° C | 94% | 1005.9 hPa | 0 mm | - | 55 W/m² | - |
| 1778024982 | 22.78° C | 94% | 1005.9 hPa | 0 mm | - | 63 W/m² | - |
| 1778024679 | 22.78° C | 94% | 1005.9 hPa | 0 mm | - | 68 W/m² | - |
| 1778024376 | 22.78° C | 94% | 1005.9 hPa | 0 mm | - | 87 W/m² | - |
| 1778024073 | 22.78° C | 93% | 1006.1 hPa | 0 mm | - | 101 W/m² | - |
| 1778023771 | 22.78° C | 93% | 1006.5 hPa | 0 mm | - | 94 W/m² | - |
| 1778023469 | 22.78° C | 94% | 1006 hPa | 0 mm | - | 103 W/m² | - |
| 1778023165 | 22.78° C | 94% | 1006 hPa | 0 mm | - | 99 W/m² | - |
| 1778022863 | 22.78° C | 94% | 1005.7 hPa | 0 mm | - | 55 W/m² | - |
| 1778022560 | 22.78° C | 94% | 1005.8 hPa | 0 mm | - | 81 W/m² | - |
| 1778022258 | 22.78° C | 94% | 1005.7 hPa | 0 mm | - | 106 W/m² | - |
| 1778021954 | 22.78° C | 93% | 1005.7 hPa | 0 mm | - | 136 W/m² | - |
| 1778021651 | 22.78° C | 94% | 1006 hPa | 0 mm | - | 141 W/m² | - |
| 1778021347 | 22.78° C | 94% | 1006.2 hPa | 0 mm | - | 120 W/m² | - |
| 1778021044 | 22.78° C | 94% | 1006.4 hPa | 0 mm | - | 83 W/m² | - |
| 1778020741 | 22.78° C | 94% | 1006.3 hPa | 0 mm | - | 114 W/m² | - |
| 1778020438 | 22.78° C | 94% | 1006.4 hPa | 0 mm | - | 141 W/m² | - |
* Rain latest hour (hover to see other rain measurements)
** Current wind speed in m/s (hover to see current wind gust speed)